Location: Siratepeler Tepesi
(39.1042°N, 32.0781°E)
Time: 01:09:09
(UTC+00:00)

Okean O Rocket - Pass Details

Date: 11 April 2026
Orbit: 613 x 635 km, 98.0° (Epoch: 13 May)

Event Time Altitude Azimuth Distance (km) Brightness Sun altitude
Exits shadow 17:29:37 13° 74° (ENE) 1,842 3.5 -12.8°
Maximum altitude 17:30:20 13° 64° (ENE) 1,816 3.6 -12.9°
Drops below altitude 10° 17:32:18 10° 37° (NE) 2,006 4.0 -13.3°
Sets 17:35:36 0° 10° (N) 2,913 5.2 -13.9°
